Overview Statistics Trail Chart Weather Telemetry Raw packets
 

This is the latest recevied weather packets stored in our database for station/object N2ZVN. If no packets are shown the sender has not sent any weather packets the latest 10 day(s).

<< 10 11 12 13 14 15 16 >>
Time Temp. Humidity Pressure Rain* Wind** Luminosity Snow
1788635889 22.22° C 63% 1015.4 hPa 0 mm - 73 W/m² -
1788635588 22.22° C 66% 1015.4 hPa 0 mm - 44 W/m² -
1788635287 22.22° C 64% 1015.4 hPa 0 mm - 107 W/m² -
1788634987 22.22° C 65% 1015.7 hPa 0 mm - 27 W/m² -
1788634685 22.22° C 65% 1015.7 hPa 0 mm - 43 W/m² -
1788634375 21.67° C 66% 1015.7 hPa 0 mm - 28 W/m² -
1788634074 21.67° C 65% 1015.7 hPa 0 mm - 30 W/m² -
1788633774 22.22° C 65% 1015.5 hPa 0 mm - 32 W/m² -
1788633473 22.22° C 66% 1015.6 hPa 0 mm - 295 W/m² -
1788633168 21.67° C 68% 1015.3 hPa 0 mm - 67 W/m² -
1788632868 21.67° C 67% 1015.3 hPa 0 mm - 264 W/m² -
1788632568 21.67° C 68% 1015.4 hPa 0 mm - 60 W/m² -
1788632263 21.67° C 68% 1015.4 hPa 0 mm - 32 W/m² -
1788631962 21.67° C 70% 1015.2 hPa 0 mm - 33 W/m² -
1788631657 21.67° C 69% 1015.4 hPa 0 mm - 549 W/m² -
1788631352 21.67° C 71% 1015.6 hPa 0 mm - 36 W/m² -
1788631052 22.22° C 70% 1015.5 hPa 0 mm - 34 W/m² -
1788630747 21.67° C 73% 1015.5 hPa 0 mm - 33 W/m² -
1788630442 21.67° C 72% 1015.6 hPa 0 mm - 33 W/m² -
1788630138 21.67° C 67% 1015.4 hPa 0 mm - 39 W/m² -
1788629834 21.67° C 72% 1015.5 hPa 0 mm - 44 W/m² -
1788629558 22.22° C 72% 1015.3 hPa 0 mm - 37 W/m² -
1788629229 22.22° C 69% 1015.4 hPa 0 mm - 36 W/m² -
1788628923 22.22° C 70% 1015.3 hPa 0 mm - 37 W/m² -
1788628619 22.22° C 70% 1015.5 hPa 0 mm - 79 W/m² -

* Rain latest hour (hover to see other rain measurements)
** Current wind speed in m/s (hover to see current wind gust speed)